This demonstration page uses our WeatherBlox Daily Observations layout. Learn more.

Left ArrowRight Arrow

44.31136, -96.79839

Hourly Observations for August 1, 2018

Temp ( °F °C ) Dew Point ( °F °C ) Humidity (%) Winds ( mph kmh ) Pressure ( in mb ) Visibility ( mi km ) Precip ( " mm )
12:56 am 00:56 Clear 66 18.9 59 15 78 78 SSW 7 11 29.96 1015 10 16 0.00 0.00
1:56 am 01:56 Clear 64 17.8 59 15 84 84 Calm 29.97 1015 10 16 0.00 0.00
2:56 am 02:56 Mostly Clear 66 18.9 59 15 78 78 S 5 7 29.96 1015 10 16 0.00 0.00
3:56 am 03:56 Clear 66 18.9 59 15 78 78 Calm 29.96 1015 10 16 0.00 0.00
4:56 am 04:56 Clear 62 16.7 59 15 90 90 SSE 5 7 29.97 1015 10 16 0.00 0.00
5:56 am 05:56 Partly Cloudy 60 15.6 59 15 96 96 Calm 29.97 1015 10 16 0.01 0.25
6:56 am 06:56 Mostly Cloudy 61 16.1 60 15.6 97 97 NNE 5 7 29.98 1015 10 16 0.00 0.03
7:39 am 07:39 Mostly Cloudy 61 16 61 16 100 100 N 7 11 29.94 1014 10 16 0.00 0.00
7:47 am 07:47 Mostly Cloudy 63 17 61 16 94 94 N 7 11 29.94 1014 10 16 0.00 0.00
7:56 am 07:56 Cloudy 62 16.7 61 16.1 96 96 N 10 17 29.99 1016 10 16 0.00 0.00
8:56 am 08:56 Cloudy 62 16.7 60 15.6 93 93 N 12 19 30.01 1016 10 16 0.00 0.00
9:56 am 09:56 Cloudy 62 16.7 60 15.6 93 93 N 10 17 30.03 1017 10 16 0.00 0.00
10:38 am 10:38 Cloudy 63 17 61 16 94 94 NNW 10 17 29.97 1015 10 16 0.00 0.00
10:56 am 10:56 Cloudy 65 18.3 60 15.6 84 84 NNE 12 19 30.04 1017 10 16 0.00 0.00
11:09 am 11:09 Cloudy 66 19 61 16 83 83 N 16 26 29.97 1015 10 16 0.00 0.00
11:28 am 11:28 Cloudy 66 19 61 16 83 83 N 15 24 29.97 1015 10 16 0.00 0.00
11:56 am 11:56 Cloudy 68 20 60 15.6 76 76 N 16 26 30.03 1017 10 16 0.00 0.00
12:56 pm 12:56 Cloudy 68 20 59 15 73 73 N 16 26 30.03 1017 10 16 0.00 0.00
1:56 pm 13:56 Cloudy 69 20.6 58 14.4 68 68 NNW 15 24 30.03 1017 10 16 0.00 0.00
2:10 pm 14:10 Cloudy 70 21 57 14 64 64 N 15 24 29.94 1014 10 16 0.00 0.00
2:56 pm 14:56 Mostly Cloudy 71 21.7 58 14.4 63 63 N 10 17 30.03 1017 10 16 0.00 0.00
3:56 pm 15:56 Mostly Cloudy 71 21.7 56 13.3 59 59 N 13 20 30.03 1017 10 16 0.00 0.00
4:56 pm 16:56 Partly Cloudy 70 21.1 57 13.9 64 64 N 12 19 30.04 1017 10 16 0.00 0.00
5:56 pm 17:56 Mostly Cloudy 69 20.6 56 13.3 63 63 N 12 19 30.04 1017 10 16 0.00 0.00
6:56 pm 18:56 Sunny 66 18.9 54 12.2 65 65 N 14 22 30.05 1018 10 16 0.00 0.00
7:56 pm 19:56 Sunny 63 17.2 53 11.7 70 70 NNE 13 20 30.06 1018 10 16 0.00 0.00
8:56 pm 20:56 Clear 59 15 51 10.6 75 75 NNE 8 13 30.07 1018 10 16 0.00 0.00
9:56 pm 21:56 Mostly Clear 58 14.4 51 10.6 78 78 N 8 13 30.09 1019 10 16 0.00 0.00
10:16 pm 22:16 Mostly Cloudy 57 14 52 11 82 82 NNE 7 11 30.06 1018 10 16 0.00 0.00
10:56 pm 22:56 Cloudy 56 13.3 51 10.6 84 84 N 6 9 30.10 1019 10 16 0.00 0.00
11:56 pm 23:56 Cloudy 57 13.9 50 10 78 78 NE 6 9 30.10 1019 10 16 0.00 0.00

Powered by AerisWeather